Regional Weather Roundup
Issued by NWS

Home | Current Version | Previous Version | Text Only | Print | Product List | Glossary Off
Versions: 1 2 3 4 5 6 7 8 9 10 11 12 13 14 15 16 17 18 19 20 21 22 23 24 25 26 27 28 29 30 31 32 33 34 35 36 37 38 39 40 41 42 43 44 45 46 47 48 49 50

000
ASUS45 KABQ 301710
RWRNM
WEATHER ROUNDUP FOR NEW MEXICO
NATIONAL WEATHER SERVICE ALBUQUERQUE NM
1100 AM MDT TUE SEP 30 2014

NOTE: "FAIR" MEANS FEW OR NO CLOUDS BELOW 12,000 FEET AGL WITH NO
       SIGNIFICANT WEATHER OR OBSTRUCTIONS TO VISION.

      THIS PRODUCT IS RELEASED AS TWO VERSIONS.  ONE VERSION NEAR
      THE TOP OF THE HOUR CONTAINING PRELIMINARY DATA FROM ALBUQUERQUE
      AND OTHER STATIONS.  A FINAL VERSION WITH ADDITIONAL DATA IS
      ISSUED ABOUT 10 MINUTES AFTER THE HOUR.

NMZ501-503-504-510>518-301800-
NORTHWEST PLATEAU/NORTHCENTRAL MOUNTAINS

CITY           SKY/WX    TMP DP  RH WIND       PRES   REMARKS
FARMINGTON     SUNNY     57  41  55 NE5       30.05S
LOS ALAMOS     SUNNY     52  32  46 E6        30.09F
SANTA FE       SUNNY     62  30  29 VRB5      30.05F
TAOS           SUNNY     52  34  50 SW6       30.09S
ANGEL FIRE     FAIR      51  28  42 SW10G20   30.11R

$$
NMZ402-403-502-505>509-301800-
WESTCENTRAL MOUNTAINS/SOUTHWEST MOUNTAINS

CITY           SKY/WX    TMP DP  RH WIND       PRES   REMARKS
GALLUP         SUNNY     56  39  53 W5        30.09F
GRANTS         SUNNY     59  30  33 SE5       30.11F
SILVER CITY    SUNNY     68  32  26 NW15      30.08S

$$
NMZ407-409-411-412-301800-
SOUTHERN DESERTS

CITY           SKY/WX    TMP DP  RH WIND       PRES   REMARKS
LORDSBURG      FAIR      72  32  23 MISG      30.02S
DEMING         SUNNY     74  41  30 W9        30.01F
LAS CRUCES     SUNNY     72  45  38 SW3       30.02S
HOLLOMAN AFB   SUNNY     74  49  40 CALM      29.96F
ALAMOGORDO     SUNNY     75  48  38 SW7       29.98F
T OR C         SUNNY     68  39  34 CALM      30.01F

$$
NMZ519>523-301800-
CENTRAL VALLEYS/CENTRAL HIGHLANDS

CITY           SKY/WX    TMP DP  RH WIND       PRES   REMARKS
ALBUQUERQUE    SUNNY     61  34  36 W6        30.05F
DOUBLE EAGLE   SUNNY     63  32  31 SW6       30.07S
MORIARTY ARPT  FAIR      65  30  27 NW10G16   30.05F
CLINES CORNERS SUNNY     60  31  33 NW21      30.05S
BELEN          FAIR      65  35  32 N3        30.04F
SOCORRO        FAIR      67  36  32 NE3       30.02F

$$
NMZ524>526-539-540-301800-
SOUTHCENTRAL MOUNTAINS

CITY           SKY/WX    TMP DP  RH WIND       PRES   REMARKS
RUIDOSO        NOT AVBL

$$
NMZ527>531-301800-
NORTHEAST HIGHLANDS/NORTHEAST PLAINS

CITY           SKY/WX    TMP DP  RH WIND       PRES   REMARKS
LAS VEGAS      SUNNY     61  28  28 S10       30.02S
RATON          SUNNY     61  33  35 E6        29.95F
CLAYTON        SUNNY     67  32  27 CALM      29.91F

$$
NMZ532>537-301800-
EASTCENTRAL PLAINS

CITY           SKY/WX    TMP DP  RH WIND       PRES   REMARKS
TUCUMCARI      SUNNY     73  42  32 W14G25    29.89F
CANNON AFB     SUNNY     73  39  29 W10       29.94F
CLOVIS AIRPORT   N/A     73  43  33 W12       29.96F

$$
NMZ028-029-538-301800-
SOUTHEAST PLAINS

CITY           SKY/WX    TMP DP  RH WIND       PRES   REMARKS
ROSWELL        SUNNY     76  42  29 N8        29.93F
CARLSBAD       SUNNY     78  53  41 NE3       29.91F
HOBBS          SUNNY     75  63  64 SW8       29.94F


$$


USA.gov is the U.S. government's official web portal to all federal, state and local government web resources and services.